Miscellaneous Local Product
Issued by NWS Hastings, NE

Home | Current Version | Previous Version | Text Only | Print | Product List | Glossary On
Versions: 1 2 3 4 5 6 7 8 9 10 11 12 13 14 15 16 17 18 19 20 21 22 23 24 25 26 27 28 29 30 31 32 33 34 35 36 37 38 39 40 41 42 43 44 45 46 47 48 49 50
000
AXUS43 KGID 300902
MISGRI

GID CWA HOURLY WEATHER ROUNDUP
NATIONAL WEATHER SERVICE HASTINGS NE
400 AM CDT TUE MAY 30 2017

NOTE: "FAIR" INDICATES FEW OR NO CLOUDS BELOW 12,000 FEET WITH NO
SIGNIFICANT WEATHER AND/OR OBSTRUCTIONS TO VISIBILITY.

...SOUTH CENTRAL NEBRASKA...

CITY           SKY/WX    TMP DP  RH WIND       PRES   REMARKS
GRAND ISLAND   CLEAR     49  43  80 W6        30.09S
HASTINGS       CLEAR     53  41  63 SW3       30.10S
KEARNEY        CLEAR     52  39  62 NW3       30.10F
ORD            CLEAR     42  37  82 NW3       30.08S
YORK           CLEAR     50  41  71 W6        30.08R
AURORA         CLEAR     50  40  67 W3        30.08S
LEXINGTON      CLEAR     45  40  84 W3        30.11S
HOLDREGE       CLEAR     48  41  77 CALM      30.10S
HEBRON         PTCLDY    51  47  87 CALM      30.08S

...NEBRASKA PANHANDLE...

CITY           SKY/WX    TMP DP  RH WIND       PRES   REMARKS
CHADRON        CLEAR     40  36  86 SW6       30.14S
ALLIANCE       CLEAR     35  32  88 CALM      30.15F
SCOTTSBLUFF    CLEAR     42  36  79 NW3       30.16F
SIDNEY         CLEAR     42  38  85 NW8       30.18S

...WESTERN AND NORTH CENTRAL NEBRASKA...

CITY           SKY/WX    TMP DP  RH WIND       PRES   REMARKS
VALENTINE      PTCLDY    41  36  82 W8        30.10S
AINSWORTH      CLEAR     44  40  85 W6        30.09S
ONEILL         CLEAR     47  39  73 W5        30.07S
BROKEN BOW     CLEAR     44  37  76 CALM      30.10S
IMPERIAL       PTCLDY    54  45  71 W8        30.12F
NORTH PLATTE   CLEAR     39  36  89 W3        30.12F
MCCOOK         PTCLDY    50  48  93 SW9       30.10S

...EASTERN NEBRASKA...

CITY           SKY/WX    TMP DP  RH WIND       PRES   REMARKS
NORFOLK        CLEAR     45  39  79 CALM      30.04S
SO SIOUX CITY  CLOUDY    50  45  83 CALM      30.02S
TEKAMAH        CLEAR     51  39  63 SW5       30.02F
ALBION         CLEAR     47  39  73 NW5       30.08R
OMAHA EPPLEY   CLEAR     52  45  77 S5        30.04S
OFFUTT AFB     CLEAR     48  46  92 CALM      30.03S
MILLARD        CLEAR     51  49  93 CALM      30.04S
LINCOLN        CLEAR     48  43  82 S5        30.07R
NEBRASKA CITY  CLEAR     54  39  57 SW8       30.05S
BEATRICE       CLEAR     47  45  90 CALM      30.07S
FALLS CITY     NOT AVBL

...NORTHERN KANSAS...

CITY           SKY/WX    TMP DP  RH WIND       PRES   REMARKS
GOODLAND       CLEAR     50  47  89 W10       30.15F
HILL CITY      CLEAR     59  52  77 W10       30.11F
NORTON         SUNNY     50  43  76 W6        30.10F
PHILLIPSBURG   CLEAR     48  48 100 SW5       30.10R
SMITH CENTER   MOCLDY    52  43  71 CALM      30.10S
HAYS           CLOUDY    57  52  83 W10       30.11F
RUSSELL        CLOUDY    55  50  83 W7        30.10S
CONCORDIA      PTCLDY    55  43  63 SE5       30.08S
SALINA         CLOUDY    59  49  69 CALM      30.08S
TOPEKA         PTCLDY    55  53  93 CALM      30.07S



USA.gov is the U.S. government's official web portal to all federal, state and local government web resources and services.